CPA423 RCKH-VHHH

Flight info

Callsign CPA423
Flight time N/A
Altitude 36000
Route PARAS2A PARAS T7 WP521 G581 ELATO V522 ABBEY
Aircraft A359/H-SDE2E3GHIJ3J4J5LM1ORWXY/LB1D1

Departure

Time 2026-04-30 22:56
Airport Kaohsiung International Airport (RCKH)

Arrival

Time N/A
Airport Hong Kong International Airport (VHHH)
Time Latitude Longitude Altitude Speed Heading
2026-04-30 22:33 22.57264 120.34238 36 ft 0 kts 271°
2026-04-30 22:45 22.57264 120.34242 36 ft 2 kts 272°
2026-04-30 22:45 22.57263 120.34274 36 ft 2 kts 272°
2026-04-30 22:46 22.57266 120.34306 37 ft 2 kts 236°
2026-04-30 22:47 22.57320 120.34323 36 ft 2 kts 182°
2026-04-30 22:47 22.57350 120.34325 36 ft 2 kts 182°
2026-04-30 22:48 22.57380 120.34326 35 ft 2 kts 182°
2026-04-30 22:49 22.57402 120.34295 35 ft 1 kts 86°
2026-04-30 22:49 22.57402 120.34290 35 ft 0 kts 88°
2026-04-30 22:51 22.57402 120.34291 35 ft 0 kts 90°
2026-04-30 22:51 22.57399 120.34357 35 ft 8 kts 92°
2026-04-30 22:52 22.57397 120.34431 35 ft 11 kts 92°
2026-04-30 22:52 22.57410 120.34605 38 ft 9 kts 37°
2026-04-30 22:53 22.57540 120.34600 38 ft 9 kts 311°
2026-04-30 22:53 22.57559 120.34390 34 ft 19 kts 272°
2026-04-30 22:53 22.57564 120.34222 32 ft 24 kts 272°
2026-04-30 22:54 22.57622 120.34127 31 ft 7 kts
2026-04-30 22:55 22.57730 120.34206 31 ft 14 kts 92°
2026-04-30 22:55 22.57690 120.35571 40 ft 157 kts 90°
2026-04-30 22:56 22.57550 120.37976 1258 ft 163 kts 107°
2026-04-30 22:56 22.54661 120.37521 2757 ft 176 kts 219°
2026-04-30 22:57 22.52760 120.35742 3671 ft 191 kts 218°
2026-04-30 22:57 22.50570 120.33740 4481 ft 223 kts 218°
2026-04-30 22:58 22.48152 120.31538 5943 ft 230 kts 220°
2026-04-30 22:59 22.44487 120.28197 8276 ft 233 kts 222°
2026-04-30 22:59 22.40748 120.24790 10336 ft 239 kts 223°